• Join FlightAware (Why Join?)
  • Login
  • US Flag 
01:50PM EDT


 

Airport Tracker/Info


-or-


 

Live Flight TrackerFlight Track Log ✈ N10WN ✈ 16-Nov-2013 ✈ 00R - KADS

Flight Track Log - Related Links

Times and Time Zones

All times are in EST time to prevent confusion due to time zone crossing. See the N10WN flight status page for this flight to view local times or setup timezone preferences in your user account.

Time Position Orientation Groundspeed Altitude Reporting Facility
EST Latitude Longitude Course Direction KTS MPH feet Rate Location/Type
06:06PM 30.7628 -95.0569 325° Northwest 125 144 2,900  Level Fort Worth Center
06:07PM 30.7908 -95.0797 325° Northwest 123 142 3,700 780 Climbing Fort Worth Center
06:08PM 30.8189 -95.1006 327° Northwest 122 140 4,500 720 Climbing Fort Worth Center
06:09PM 30.8450 -95.1219 325° Northwest 118 136 5,200 600 Climbing Houston Center
06:10PM 30.8703 -95.1428 325° Northwest 113 130 5,800 660 Climbing Houston Center
06:11PM 30.9008 -95.1669 326° Northwest 112 129 6,600 600 Climbing Houston Center
06:12PM 30.9261 -95.1869 326° Northwest 110 127 7,100 480 Climbing Houston Center
06:13PM 30.9525 -95.2086 325° Northwest 114 131 7,700 480 Climbing Houston Center
06:14PM 30.9769 -95.2275 326° Northwest 109 125 8,100 180 Climbing Houston Center
06:15PM 31.0094 -95.2531 326° Northwest 136 157 8,100  Level Houston Center
06:16PM 31.0489 -95.2817 328° Northwest 159 183 8,100 -60 Level Houston Center
06:17PM 31.0875 -95.3128 325° Northwest 167 192 8,000 -60 Descending Houston Center
06:18PM 31.1250 -95.3431 325° Northwest 165 190 8,000  Level Houston Center
06:19PM 31.1625 -95.3728 326° Northwest 163 188 8,100  Climbing Houston Center
06:20PM 31.2061 -95.4083 325° Northwest 159 183 8,100 -60 Level Houston Center
06:21PM 31.2417 -95.4372 325° Northwest 156 180 8,000  Descending Houston Center
06:22PM 31.2761 -95.4658 325° Northwest 152 175 8,100  Climbing Houston Center
06:23PM 31.3114 -95.4939 326° Northwest 153 176 8,000 -60 Descending Houston Center
06:24PM 31.3469 -95.5217 326° Northwest 152 175 8,000  Level Houston Center
06:25PM 31.3811 -95.5514 323° Northwest 153 176 8,100  Climbing Houston Center
06:26PM 31.4164 -95.5792 326° Northwest 152 175 8,100 -60 Level Houston Center
06:27PM 31.4522 -95.6083 325° Northwest 156 180 8,000  Descending Houston Center
06:28PM 31.4881 -95.6361 327° Northwest 154 177 8,100  Climbing Houston Center
06:29PM 31.5283 -95.6706 324° Northwest 150 173 8,000  Descending Houston Center
06:30PM 31.5628 -95.6994 324° Northwest 151 174 8,100  Climbing Houston Center
06:31PM 31.5969 -95.7278 325° Northwest 151 174 8,100 -60 Level Houston Center
06:32PM 31.6325 -95.7569 325° Northwest 154 177 8,000 -60 Descending Houston Center
06:33PM 31.6683 -95.7853 326° Northwest 151 174 8,000  Level Fort Worth Center
06:34PM 31.7042 -95.8144 325° Northwest 156 180 8,000  Level Fort Worth Center
06:35PM 31.7369 -95.8431 323° Northwest 148 170 8,000 -60 Level Fort Worth Center
06:36PM 31.7719 -95.8708 326° Northwest 151 174 7,900  Descending Fort Worth Center
06:37PM 31.8053 -95.9003 323° Northwest 150 173 8,000  Climbing Fort Worth Center
06:39PM 31.8461 -95.9325 326° Northwest 147 169 8,000  Level Fort Worth Center
06:40PM 31.8767 -95.9561 327° Northwest 150 173 8,000  Level Fort Worth Center
06:41PM 31.9167 -95.9908 324° Northwest 151 174 8,000  Level Fort Worth Center
06:42PM 31.9497 -96.0197 323° Northwest 146 168 8,000  Level Fort Worth Center
06:43PM 31.9814 -96.0453 326° Northwest 149 171 8,000  Level Fort Worth Center
06:44PM 32.0169 -96.0731 326° Northwest 152 175 8,000  Level Fort Worth Center
06:45PM 32.0514 -96.1022 324° Northwest 153 176 8,000  Level Fort Worth Center
06:46PM 32.0914 -96.1364 324° Northwest 148 170 8,000  Level Fort Worth Center
06:47PM 32.1256 -96.1653 324° Northwest 150 173 8,000  Level Fort Worth Center
06:48PM 32.1608 -96.1936 326° Northwest 152 175 8,000  Level Fort Worth Center
06:49PM 32.1961 -96.2219 326° Northwest 152 175 8,000 -60 Level Fort Worth Center
06:50PM 32.2375 -96.2481 332° Northwest 155 178 7,900 -180 Descending Fort Worth Center
06:51PM 32.2778 -96.2708 334° Northwest 160 184 7,700 -480 Descending Fort Worth Center
06:52PM 32.3253 -96.2992 333° Northwest 177 204 7,000 -660 Descending Fort Worth Center
06:53PM 32.3719 -96.3258 334° Northwest 185 213 6,400 -540 Descending Fort Worth Center
06:54PM 32.4175 -96.3525 334° Northwest 184 212 6,000 -240 Descending Fort Worth Center
06:55PM 32.4622 -96.3803 332° Northwest 168 193 6,000 -300 Level Fort Worth Center
06:56PM 32.5058 -96.4067 333° Northwest 176 203 5,500 -420 Descending Fort Worth Center
06:57PM 32.5508 -96.4350 332° Northwest 181 208 5,200 -240 Descending Fort Worth Center
06:58PM 32.5975 -96.4622 334° Northwest 174 200 5,100 -300 Descending Fort Worth Center
06:59PM 32.6453 -96.4772 345° North 184 212 4,700 -480 Descending Fort Worth Center
07:00PM 32.7017 -96.4828 355° North 200 230 4,200 -540 Descending Fort Worth Center
07:01PM 32.7597 -96.4972 348° North 198 228 3,700 -540 Descending Fort Worth Center
07:02PM 32.8136 -96.5161 344° North 201 231 3,200 -360 Descending Fort Worth Center
07:03PM 32.8658 -96.5350 343° North 197 227 3,000 -120 Descending Fort Worth Center
07:04PM 32.9042 -96.5678 324° Northwest 168 193 3,000  Level Fort Worth Center
07:05PM 32.9414 -96.6061 319° Northwest 164 189 3,000  Level Fort Worth Center
07:06PM 32.9756 -96.6414 319° Northwest 161 185 3,000 -60 Level Fort Worth Center
07:08PM 33.0167 -96.6833 319° Northwest 164 189 2,900 -180 Descending Dallas / Fort Worth TRACON
07:09PM 33.0333 -96.7333 292° West 117 135 2,700 -480 Descending Dallas / Fort Worth TRACON
07:09PM 33.0167 -96.7667 239° Southwest 134 154 2,000 -540 Descending Dallas / Fort Worth TRACON
07:11PM 33.0167 -96.8000 270° West 123 142 1,700 -240 Descending Dallas / Fort Worth TRACON
07:12PM 33.0167 -96.8500 270° West 105 121 1,500 -240 Descending Dallas / Fort Worth TRACON
07:12PM 33.0167 -96.8500 180° South 67 77 1,300 -360 Descending Dallas / Fort Worth TRACON
07:14PM 32.9833 -96.8500 180° South 68 78 900 -420 Descending Dallas / Fort Worth TRACON